Location: Piotrkow Trybunalski
(51.4000°N, 19.6833°E)
Time: 03:16:56
(UTC+02:00)

ISS - Visible Passes

Search period start: 23 September 2018 00:00
Search period end: 03 October 2018 00:00
Orbit: 403 x 408 km, 51.6° (Epoch: 23 September)

Date Brightness Start Highest point End Pass type
(mag) Time Alt. Az. Time Alt. Az. Time Alt. Az.
23 Sep -1.9 19:37:03 10° S 19:38:59 15° SE 19:39:38 14° SE visible
23 Sep -1.2 21:11:44 10° WSW 21:12:21 14° SW 21:12:21 14° SW visible
24 Sep -3.1 20:20:04 10° SW 20:22:54 37° SSE 20:22:54 37° SSE visible
25 Sep -2.6 19:28:35 10° SSW 19:31:24 26° SSE 19:33:18 16° E visible
25 Sep -2.0 21:04:19 10° WSW 21:05:59 27° WSW 21:05:59 27° WSW visible
26 Sep -3.8 20:12:28 10° WSW 20:15:44 61° SSE 20:16:15 51° ESE visible
26 Sep -0.4 21:48:54 10° W 21:48:56 10° W 21:48:56 10° W visible
27 Sep -3.3 19:20:42 10° SW 19:23:52 44° SSE 19:26:26 14° E visible
27 Sep -2.4 20:56:57 10° W 20:59:06 37° W 20:59:06 37° W visible
28 Sep -3.9 20:05:01 10° WSW 20:08:19 84° S 20:09:12 46° E visible
28 Sep -0.6 21:41:33 10° W 21:41:52 12° W 21:41:52 12° W visible
29 Sep -3.8 19:13:05 10° WSW 19:16:23 68° SSE 19:19:14 13° E visible
29 Sep -2.6 20:49:35 10° W 20:51:54 42° W 20:51:54 42° W visible
30 Sep -3.9 19:57:35 10° W 20:00:55 84° N 20:01:54 42° E visible
30 Sep -0.6 21:34:08 10° W 21:34:34 13° W 21:34:34 13° W visible
01 Oct -3.8 19:05:36 10° W 19:08:55 89° SSE 19:11:53 12° E visible
01 Oct -2.8 20:42:08 10° W 20:44:32 45° W 20:44:32 45° W visible
02 Oct -3.9 19:50:08 10° W 19:53:27 87° NNE 19:54:30 41° E visible
02 Oct -0.6 21:26:41 10° W 21:27:09 13° W 21:27:09 13° W visible
